User: anonymous   Login
Location: Fort Wayne
(41.1310°N, 85.1290°W)
Time: 07:41:55
(UTC-05:00)
Language:

SL-08 RB Rocket - Orbit

View from above orbital plane
View from above orbital plane
View from above satellite
View from above satellite

Ground track
Ground track

The orbit data is extracted from the following two-line orbital elements,

1 26387U 00033D   16044.83966676  .00000383  00000-0  74859-4 0  9999
2 26387  98.0331 113.8553 0027956  91.4995  42.7411 14.68092767836077
Epoch (UTC): 13 February 2016 20:09:07
Eccentricity: 0.0027956
inclination: 98.0331°
perigee height: 647 km
apogee height: 687 km
right ascension of ascending node: 113.8553°
argument of perigee: 91.4995°
revolutions per day: 14.68092767
mean anomaly at epoch: 42.7411°
orbit number at epoch: 83607

The dashed part of the orbit path shows where the satellite is in the earth's shadow,  

DLR